sat.trackr.live / text

‹ back to catalog

STARLINK-35745

NORAD 66271 · 2025-247G

PAYLOAD ACTIVE UNKNOWN

§ Identity

Operator
Country
US
Launch date
2025-10-31
Launch site
AFWTR
Launch vehicle
Mass (kg)
RCS (m²)

Purposes: comms

External: N2YO · Heavens-Above · Gunter

§ Orbital elements

Epoch: 2026-05-25T02:54:57.248352Z

Period
94.10 min
Inclination
53.1586°
Eccentricity
0.0001662
Mean motion
15.30210121 rev/d
Perigee alt
474.0 km
Apogee alt
476.3 km
Semi-major
6,853.3 km
B*
5.4122e-4
RAAN
196.5730°
Arg perigee
73.4218°
Mean anomaly
286.6965°
Rev number
3,278

§ Raw data

STARLINK-357451 66271U 25247G   26145.12149593  .00015709  00000+0  54122-3 0  99922 66271  53.1586 196.5730 0001662  73.4218 286.6965 15.30210121 32781

JSON: /api/v1/satellites/66271 · /tle

For live sub-satellite position, see the globe view (requires WebGL).

§ Visibility from observer

Set your observer location to see the next 7 days of passes ≥ 10°. The values pass through the URL so the page stays shareable.

No JS? Fill the form by hand. The geolocation button needs JavaScript.